Regional Weather Roundup
Issued by NWS

Home | Current Version | Previous Version | Text Only | Print | Product List | Glossary On
Versions: 1 2 3 4 5 6 7 8 9 10 11 12 13 14 15 16 17 18 19 20 21 22 23 24 25 26 27 28 29 30 31 32 33 34 35 36 37 38 39 40 41 42 43 44 45 46 47 48 49 50
000
ASUS43 KLMK 240410
RWRKY
KENTUCKY REGIONAL WEATHER ROUNDUP
NATIONAL WEATHER SERVICE LOUISVILLE KY
1200 AM EDT THU MAY 24 2018

NOTE "FAIR" INDICATES FEW OR NO CLOUDS BELOW 12,000 FEET
WITH NO SIGNIFICANT WEATHER AND/OR OBSTRUCTIONS TO VISIBILITY.

KYZ001>023-026-027-061>063-070>075-240500-
WESTERN AND SOUTH CENTRAL KENTUCKY

CITY           SKY/WX    TMP DP  RH WIND       PRES   REMARKS
PADUCAH        FAIR      72  67  84 CALM      30.09S
HENDERSON      NOT AVBL
OWENSBORO      FAIR      75  62  64 NE7       30.12S
HOPKINSVILLE   FAIR      73  67  80 NE6       30.10S
BOWLING GREEN  FAIR      72  68  87 NE3       30.11F
GLASGOW        FAIR      70  62  76 CALM      30.13S
$$

KYZ024-025-028>034-038-045-046-053-240500-
NORTH CENTRAL KENTUCKY

CITY           SKY/WX    TMP DP  RH WIND       PRES   REMARKS
LOUISVILLE/SDF FAIR      74  60  61 E6        30.14R
LOUISVILLE/LOU FAIR      71  62  73 NE5       30.15R
FORT KNOX      FAIR      68  59  73 NE3       30.15R
$$

KYZ035>037-039>044-047>052-055>060-089>105-240500-
NORTHEAST KENTUCKY

CITY           SKY/WX    TMP DP  RH WIND       PRES   REMARKS
LEXINGTON      FAIR      66  58  75 NE6       30.17R
COVINGTON      MOCLDY    69  55  60 E7        30.18R
FRANKFORT      FAIR      65  58  78 CALM      30.15S
$$

KYZ054-064>069-076>088-106>120-240500-
SOUTHEAST KENTUCKY

CITY           SKY/WX    TMP DP  RH WIND       PRES   REMARKS
JACKSON        FAIR      67  59  75 CALM      30.17R
LONDON         FAIR      69  63  81 N5        30.15R
SOMERSET       FAIR      68  61  77 MISG      30.15S
MIDDLESBORO    FAIR      66  65  98 CALM      30.15R
MONTICELLO     FAIR      67  64  90 W7        30.16R
$$




USA.gov is the U.S. government's official web portal to all federal, state and local government web resources and services.